Today

Time Wind Dr Wind Spd
mph
Wind Gust
mph
Hum In
%
Humid
%
TempI
F
Temp
F
Raw Bar
in
Tot Rain
in
UV Solar
W/sqm
DailyRain
in
HourRain
in
24HrRain
in
RainRate
in
05/10/26 12:01:23 AM 37 0.0 0.0 52 73 73.5 63.4 29.905 7.26 0.0 0 0.00 0.00 0.00 0.00
05/10/26 12:02:36 AM 32 0.0 0.0 52 73 73.5 63.4 29.905 7.26 0.0 0 0.00 0.00 0.00 0.00
05/10/26 12:03:27 AM 38 0.0 0.0 52 73 73.5 63.3 29.904 7.26 0.0 0 0.00 0.00 0.00 0.00
05/10/26 12:04:19 AM 35 0.0 0.0 52 73 73.5 63.3 29.906 7.26 0.0 0 0.00 0.00 0.00 0.00
05/10/26 12:05:31 AM 38 0.0 0.0 52 73 73.5 63.2 29.906 7.26 0.0 0 0.00 0.00 0.00 0.00
05/10/26 12:06:20 AM 38 0.0 0.0 52 73 73.5 63.2 29.908 7.26 0.0 0 0.00 0.00 0.00 0.00
05/10/26 12:07:32 AM 38 0.0 0.0 52 73 73.5 63.1 29.907 7.26 0.0 0 0.00 0.00 0.00 0.00
05/10/26 12:08:23 AM 38 0.0 0.0 52 73 73.5 63.1 29.906 7.26 0.0 0 0.00 0.00 0.00 0.00
05/10/26 12:09:33 AM 32 0.0 0.0 52 73 73.5 63.1 29.906 7.26 0.0 0 0.00 0.00 0.00 0.00
05/10/26 12:10:27 AM 34 0.0 0.0 52 73 73.5 63.1 29.905 7.26 0.0 0 0.00 0.00 0.00 0.00
05/10/26 12:11:19 AM 37 0.0 0.0 52 73 73.5 63.0 29.905 7.26 0.0 0 0.00 0.00 0.00 0.00
05/10/26 12:12:25 AM 30 0.0 0.0 52 73 73.5 63.0 29.905 7.26 0.0 0 0.00 0.00 0.00 0.00
05/10/26 12:13:20 AM 34 0.0 0.0 52 73 73.5 62.9 29.906 7.26 0.0 0 0.00 0.00 0.00 0.00
05/10/26 12:14:29 AM 37 0.0 0.0 52 73 73.5 62.9 29.905 7.26 0.0 0 0.00 0.00 0.00 0.00
05/10/26 12:15:24 AM 34 0.0 0.0 52 73 73.5 62.9 29.905 7.26 0.0 0 0.00 0.00 0.00 0.00
05/10/26 12:16:33 AM 38 0.0 0.0 52 73 73.5 62.8 29.905 7.26 0.0 0 0.00 0.00 0.00 0.00
05/10/26 12:17:21 AM 36 0.0 0.0 52 73 73.5 62.8 29.906 7.26 0.0 0 0.00 0.00 0.00 0.00
05/10/26 12:18:34 AM 34 0.0 0.0 52 74 73.5 62.7 29.906 7.26 0.0 0 0.00 0.00 0.00 0.00
05/10/26 12:19:26 AM 34 0.0 0.0 52 74 73.5 62.7 29.906 7.26 0.0 0 0.00 0.00 0.00 0.00
05/10/26 12:20:18 AM 35 0.0 0.0 52 74 73.5 62.7 29.907 7.26 0.0 0 0.00 0.00 0.00 0.00
05/10/26 12:21:31 AM 38 0.0 0.0 52 74 73.5 62.6 29.907 7.26 0.0 0 0.00 0.00 0.00 0.00
05/10/26 12:22:17 AM 38 0.0 0.0 52 74 73.5 62.6 29.906 7.26 0.0 0 0.00 0.00 0.00 0.00
05/10/26 12:23:30 AM 38 0.0 0.0 52 74 73.5 62.6 29.908 7.26 0.0 0 0.00 0.00 0.00 0.00
05/10/26 12:24:22 AM 36 0.0 0.0 52 74 73.5 62.6 29.909 7.26 0.0 0 0.00 0.00 0.00 0.00
05/10/26 12:25:35 AM 30 0.0 0.0 52 74 73.5 62.5 29.907 7.26 0.0 0 0.00 0.00 0.00 0.00
05/10/26 12:26:27 AM 38 0.0 0.0 52 74 73.5 62.5 29.907 7.26 0.0 0 0.00 0.00 0.00 0.00
05/10/26 12:27:16 AM 38 0.0 0.0 52 74 73.4 62.5 29.904 7.26 0.0 0 0.00 0.00 0.00 0.00
05/10/26 12:28:23 AM 35 0.0 0.0 52 74 73.5 62.5 29.904 7.26 0.0 0 0.00 0.00 0.00 0.00
05/10/26 12:29:33 AM 32 0.0 0.0 52 74 73.4 62.4 29.904 7.26 0.0 0 0.00 0.00 0.00 0.00
05/10/26 12:30:28 AM 37 0.0 0.0 52 74 73.4 62.4 29.906 7.26 0.0 0 0.00 0.00 0.00 0.00
05/10/26 12:31:16 AM 32 0.0 0.0 52 74 73.5 62.3 29.902 7.26 0.0 0 0.00 0.00 0.00 0.00
05/10/26 12:32:29 AM 37 0.0 0.0 52 74 73.5 62.3 29.904 7.26 0.0 0 0.00 0.00 0.00 0.00
05/10/26 12:33:18 AM 38 0.0 0.0 52 74 73.5 62.3 29.905 7.26 0.0 0 0.00 0.00 0.00 0.00
05/10/26 12:34:31 AM 35 0.0 0.0 52 74 73.4 62.3 29.905 7.26 0.0 0 0.00 0.00 0.00 0.00
05/10/26 12:35:23 AM 37 0.0 0.0 52 74 73.4 62.2 29.904 7.26 0.0 0 0.00 0.00 0.00 0.00
05/10/26 12:36:33 AM 37 0.0 0.0 52 74 73.4 62.2 29.906 7.26 0.0 0 0.00 0.00 0.00 0.00
05/10/26 12:37:25 AM 37 0.0 0.0 52 74 73.4 62.2 29.907 7.26 0.0 0 0.00 0.00 0.00 0.00
05/10/26 12:38:32 AM 37 0.0 0.0 52 74 73.4 62.2 29.904 7.26 0.0 0 0.00 0.00 0.00 0.00
05/10/26 12:39:27 AM 37 0.0 0.0 52 74 73.5 62.2 29.904 7.26 0.0 0 0.00 0.00 0.00 0.00
05/10/26 12:40:19 AM 37 0.0 0.0 52 74 73.4 62.2 29.906 7.26 0.0 0 0.00 0.00 0.00 0.00
05/10/26 12:41:32 AM 34 0.0 0.0 52 75 73.5 62.1 29.902 7.26 0.0 0 0.00 0.00 0.00 0.00
05/10/26 12:42:24 AM 37 0.0 0.0 52 75 73.5 62.1 29.905 7.26 0.0 0 0.00 0.00 0.00 0.00
05/10/26 12:43:31 AM 38 0.0 0.0 52 75 73.5 62.0 29.903 7.26 0.0 0 0.00 0.00 0.00 0.00
05/10/26 12:44:23 AM 36 0.0 0.0 52 75 73.5 62.0 29.903 7.26 0.0 0 0.00 0.00 0.00 0.00
05/10/26 12:45:57 AM 36 0.0 0.0 52 75 73.5 62.0 29.906 7.26 0.0 0 0.00 0.00 0.00 0.00
05/10/26 12:46:28 AM 38 0.0 0.0 52 75 73.5 62.0 29.902 7.26 0.0 0 0.00 0.00 0.00 0.00
05/10/26 12:47:20 AM 38 0.0 0.0 52 75 73.4 62.0 29.902 7.26 0.0 0 0.00 0.00 0.00 0.00
05/10/26 12:48:33 AM 38 0.0 0.0 52 75 73.4 62.0 29.904 7.26 0.0 0 0.00 0.00 0.00 0.00
05/10/26 12:49:21 AM 38 0.0 0.0 52 76 73.4 62.0 29.905 7.26 0.0 0 0.00 0.00 0.00 0.00
05/10/26 12:50:34 AM 38 0.0 0.0 52 76 73.4 61.9 29.902 7.26 0.0 0 0.00 0.00 0.00 0.00
05/10/26 12:51:23 AM 37 0.0 0.0 52 76 73.5 61.9 29.903 7.26 0.0 0 0.00 0.00 0.00 0.00
05/10/26 12:52:36 AM 32 0.0 0.0 52 76 73.4 61.9 29.902 7.26 0.0 0 0.00 0.00 0.00 0.00
05/10/26 12:53:28 AM 34 0.0 0.0 52 76 73.4 61.9 29.904 7.26 0.0 0 0.00 0.00 0.00 0.00
05/10/26 12:54:20 AM 38 0.0 0.0 52 76 73.4 61.8 29.903 7.26 0.0 0 0.00 0.00 0.00 0.00
05/10/26 12:55:30 AM 31 0.0 0.0 52 76 73.3 61.8 29.906 7.26 0.0 0 0.00 0.00 0.00 0.00
05/10/26 12:56:22 AM 37 0.0 0.0 52 76 73.3 61.8 29.903 7.26 0.0 0 0.00 0.00 0.00 0.00
05/10/26 12:57:35 AM 32 0.0 0.0 52 76 73.3 61.8 29.904 7.26 0.0 0 0.00 0.00 0.00 0.00
05/10/26 12:58:27 AM 32 0.0 0.0 52 76 73.4 61.8 29.901 7.26 0.0 0 0.00 0.00 0.00 0.00
05/10/26 12:59:22 AM 38 0.0 0.0 52 76 73.3 61.8 29.902 7.26 0.0 0 0.00 0.00 0.00 0.00
05/10/26 1:00:53 AM 38 0.0 0.0 52 76 73.4 61.8 29.901 7.26 0.0 0 0.00 0.00 0.00 0.00
05/10/26 1:01:24 AM 37 0.0 0.0 52 76 73.3 61.8 29.900 7.26 0.0 0 0.00 0.00 0.00 0.00
05/10/26 1:02:34 AM 38 0.0 0.0 52 76 73.3 61.7 29.900 7.26 0.0 0 0.00 0.00 0.00 0.00
05/10/26 1:03:26 AM 36 0.0 0.0 52 76 73.3 61.7 29.901 7.26 0.0 0 0.00 0.00 0.00 0.00
05/10/26 1:04:18 AM 34 0.0 0.0 52 76 73.3 61.7 29.901 7.26 0.0 0 0.00 0.00 0.00 0.00
05/10/26 1:05:31 AM 38 0.0 0.0 52 76 73.3 61.7 29.902 7.26 0.0 0 0.00 0.00 0.00 0.00
05/10/26 1:06:20 AM 36 0.0 0.0 52 76 73.3 61.6 29.899 7.26 0.0 0 0.00 0.00 0.00 0.00
05/10/26 1:07:33 AM 37 0.0 0.0 52 76 73.3 61.6 29.901 7.26 0.0 0 0.00 0.00 0.00 0.00
05/10/26 1:08:25 AM 37 0.0 0.0 52 77 73.3 61.6 29.902 7.26 0.0 0 0.00 0.00 0.00 0.00
05/10/26 1:09:35 AM 39 0.0 0.0 52 77 73.3 61.6 29.899 7.26 0.0 0 0.00 0.00 0.00 0.00
05/10/26 1:10:30 AM 35 0.0 0.0 52 77 73.3 61.6 29.902 7.26 0.0 0 0.00 0.00 0.00 0.00
05/10/26 1:11:16 AM 36 0.0 0.0 52 77 73.3 61.6 29.899 7.26 0.0 0 0.00 0.00 0.00 0.00
05/10/26 1:12:29 AM 38 0.0 0.0 52 77 73.3 61.6 29.900 7.26 0.0 0 0.00 0.00 0.00 0.00
05/10/26 1:13:21 AM 38 0.0 0.0 52 77 73.3 61.6 29.899 7.26 0.0 0 0.00 0.00 0.00 0.00
05/10/26 1:14:31 AM 38 0.0 0.0 52 77 73.3 61.5 29.898 7.26 0.0 0 0.00 0.00 0.00 0.00
05/10/26 1:15:26 AM 36 0.0 0.0 52 77 73.2 61.5 29.900 7.26 0.0 0 0.00 0.00 0.00 0.00
05/10/26 1:16:18 AM 35 0.0 0.0 52 77 73.3 61.5 29.899 7.26 0.0 0 0.00 0.00 0.00 0.00
05/10/26 1:17:25 AM 38 0.0 0.0 52 77 73.3 61.5 29.899 7.26 0.0 0 0.00 0.00 0.00 0.00

University Police wind advisory reference

For campus closure information please call the campus Emergency Hotline at (909) 537-5999

© All rights reserved. Unauthorized duplication or distribution is prohibited

Never base important decisions on this or any weather information obtained from the Internet

California State University, San Bernardino
5500 University Parkway, San Bernardino, CA. 92407
Phone: (909) 537-5108, Email: Weather Webmaster
Last Updated: